Flag for Austria Weather past 2 weeks in Waidhofen an der Ybbs, Lower Austria, Austria

Now
45 °F

Fog.


Feels Like: 44 °F
Forecast: 39 / 44 °F
Wind: 3 mph from West

Location: Amstetten

Current Time: Mar 27, 2015 at 12:17:31 AM

Latest Report: Mar 26, 2015 at 11:00 PM


Visibility: N/A

Pressure: 29.85 "Hg

Humidity: 89%

Dew point: 42 °F

Location of Waidhofen an der YbbsLocation

Historic Weather in Waidhofen an der Ybbs — Graph

°F

Waidhofen an der Ybbs temperature yesterday

Maximum temperature yesterday: 53 °F (at 1:00 PM)
Minimum temperature yesterday: 46 °F (at 10:00 PM)
Average temperature yesterday: 50 °F

Past Weeks' High & Low Weather Summary

 TemperatureHumidityPressure
High61 °F (Mar 24, 4:00 PM)94% (Mar 22, 4:00 AM)30.42 "Hg (Mar 22, 4:00 AM)
Low26 °F (Mar 21, 6:00 AM)30% (Mar 20, 4:00 PM)29.63 "Hg (Mar 25, 5:00 PM)
Average44 °F68%30.14 "Hg
* Reported Mar 11 10:00 PM — Mar 26 10:00 PM, Waidhofen an der Ybbs, Weather by CustomWeather, © 2015

Note: Actual official high and low records may vary slightly from our data, if they occured in-between our weather recording intervals... More about our weather records

Advertising

Waidhofen an der Ybbs weather history for previous 24 hours

 ConditionsComfort  
Time TempWeatherWind HumidityBarometerVisibility
10:00 PM
Thu, Mar 26
46 °FCool.3 mph89%29.84 "HgN/A
9:00 PM47 °FFog.3 mph83%29.83 "HgN/A
8:00 PM49 °FCool.2 mph75%29.81 "HgN/A
7:00 PM49 °FCool.3 mph74%29.80 "HgN/A
6:00 PM51 °FCool.3 mph72%29.78 "HgN/A
5:00 PM51 °FCool.2 mph70%29.77 "HgN/A
4:00 PM52 °FCool.2 mph70%29.77 "HgN/A
3:00 PM52 °FCool.3 mph68%29.76 "HgN/A
2:00 PM53 °FCool.3 mph70%29.77 "HgN/A
1:00 PM53 °FCool.2 mph69%29.78 "HgN/A
12:00 PM53 °FPassing clouds.18 mph73%29.78 "Hg1 mi
11:00 AM51 °FCool.3 mph75%29.78 "HgN/A
10:00 AM50 °FCool.2 mph79%29.78 "HgN/A
9:00 AM51 °FFog.2 mph78%29.76 "HgN/A
8:00 AM50 °FCool.2 mph81%29.73 "HgN/A
7:00 AM47 °FCool.1 mph90%29.71 "HgN/A
6:00 AM48 °FCool.2 mph90%29.67 "HgN/A
5:00 AM48 °FFog.3 mph89%29.65 "HgN/A
4:00 AM49 °FFog.5 mph87%29.64 "HgN/A
3:00 AM50 °FCool.5 mph84%29.64 "HgN/A
2:00 AM51 °FCool.6 mph80%29.64 "HgN/A
1:00 AM51 °FCool.6 mph76%29.65 "HgN/A
12:00 AM53 °FCool.6 mph68%29.64 "HgN/A
Weather by CustomWeather, © 2015

See weather overviewHow to use our weather pages